Tracking 20241 objects as of 26-Jan-2020
HD Live streaming from Space Station
objects crossing your sky now

OPS 6073 (DMSP 4A F2)

Track OPS 6073 (DMSP 4A F2) now!
10-day predictions
OPS 6073 (DMSP 4A F2) is classified as:


NORAD ID: 2669
Int'l Code: 1967-010A
Perigee: 773.8 km
Apogee: 843.8 km
Inclination: 98.9 °
Period: 100.9 minutes
Semi major axis: 7179 km
RCS: 0.6644 m2 (medium)
Launch date: February 8, 1967
Source: United States (US)
Launch site: AIR FORCE WESTERN TEST RANGE (AFWTR)
aabbcc
Your satellite tracking list
Your tracking list is empty




NASA's NSSDC Master Catalog

Two Line Element Set (TLE):
1  2669U 67010A   20025.73964993 -.00000007  00000-0  16030-4 0  9998
2  2669  98.9450 289.5614 0048785 292.8359  66.7672 14.27031500751768
Source of the keplerian elements: AFSPC